This is the latest recevied weather packets stored in our database for station/object GUNLAK-WX. If no packets are shown the sender has not sent any weather packets the latest 10 day(s).
| Time | Temp. | Humidity | Pressure | Rain* | Wind** | Luminosity | Snow |
|---|---|---|---|---|---|---|---|
| 1777034775 | 18.89° C | 57% | 979.1 hPa | 0 mm | - | - | - |
| 1777033890 | 19.44° C | 61% | 979.4 hPa | 0 mm | - | - | - |
| 1777032974 | 18.89° C | 61% | 979.4 hPa | 0 mm | - | - | - |
| 1777032101 | 18.33° C | 61% | 979.4 hPa | 0 mm | - | - | - |
| 1777031174 | 17.78° C | 59% | 978.4 hPa | 0 mm | - | - | - |
| 1777030293 | 17.78° C | 63% | 979.9 hPa | 0 mm | - | - | - |
| 1777029375 | 17.78° C | 63% | 979.9 hPa | 0 mm | - | - | - |
| 1777028496 | 17.78° C | 63% | 979.9 hPa | 0 mm | - | - | - |
| 1777027573 | 17.78° C | 57% | 979.8 hPa | 0 mm | - | - | - |
| 1777026691 | 17.78° C | 60% | 980.1 hPa | 0 mm | - | - | - |
| 1777025773 | 17.22° C | 60% | 980.1 hPa | 0 mm | - | - | - |
| 1777024900 | 17.22° C | 60% | 980.1 hPa | 0 mm | - | - | - |
| 1777023973 | 16.67° C | 55% | 980.1 hPa | 0 mm | - | - | - |
| 1777023090 | 16.67° C | 56% | 980.6 hPa | 0 mm | - | - | - |
| 1777022175 | 17.22° C | 56% | 980.6 hPa | 0 mm | - | - | - |
| 1777021298 | 17.22° C | 56% | 980.6 hPa | 0 mm | - | - | - |
| 1777020381 | 17.22° C | 56% | 980 hPa | 0 mm | - | - | - |
| 1777019486 | 16.11° C | 63% | 980.3 hPa | 0 mm | - | - | - |
| 1777018574 | 16.11° C | 63% | 980.3 hPa | 0 mm | - | - | - |
| 1777017695 | 16.11° C | 63% | 980.3 hPa | 0 mm | - | - | - |
| 1777016779 | 16.11° C | 61% | 981.3 hPa | 0 mm | - | - | - |
| 1777015891 | 16.67° C | 61% | 981.3 hPa | 0 mm | - | - | - |
| 1777014974 | 17.22° C | 61% | 981.3 hPa | 0 mm | - | - | - |
| 1777014094 | 17.22° C | 61% | 981.3 hPa | 0 mm | - | - | - |
| 1777013181 | 17.22° C | 58% | 981.3 hPa | 0 mm | - | - | - |
* Rain latest hour (hover to see other rain measurements)
** Current wind speed in m/s (hover to see current wind gust speed)